Location: Haliburton Scout Reserve
(45.0900°N, 78.3200°W)
Time: 20:01:56
(UTC-05:00)

Courier 1B - Pass Details

Date: 04 December 2023
Orbit: 962 x 1209 km, 28.3° (Epoch: 23 February)

Event Time Altitude Azimuth Distance (km) Brightness Sun altitude
Rises 14:08:26 0° 246° (WSW) 3,635 11.4 16.9°
Reaches altitude 10° 14:14:30 10° 203° (SSW) 2,687 12.2 16.3°
Maximum altitude 14:14:56 10° 199° (SSW) 2,683 11.9 16.3°
Drops below altitude 10° 14:15:23 10° 195° (SSW) 2,689 11.7 16.2°
Sets 14:21:30 0° 152° (SSE) 3,670 10.9 15.7°
